TimePST,TemperatureF,Dew PointF,Humidity,Sea Level PressureIn,VisibilityMPH,Wind Direction,Wind SpeedMPH,Gust SpeedMPH,PrecipitationIn,Events,Conditions,WindDirDegrees,DateUTC
12:22 AM,28.4,26.6,93,30.25,5.0,Calm,Calm,-,N/A,,Overcast,0,2013-01-06 08:22:00
12:53 AM,28.9,27.0,92,30.26,5.0,Calm,Calm,-,N/A,,Overcast,0,2013-01-06 08:53:00
1:53 AM,28.9,27.0,92,30.26,6.0,South,4.6,-,N/A,,Overcast,180,2013-01-06 09:53:00
2:53 AM,28.9,27.0,92,30.25,6.0,SSE,3.5,-,N/A,,Overcast,150,2013-01-06 10:53:00
3:53 AM,28.9,27.0,92,30.24,6.0,SE,3.5,-,N/A,,Overcast,130,2013-01-06 11:53:00
4:53 AM,30.0,27.0,88,30.22,6.0,Calm,Calm,-,N/A,,Overcast,0,2013-01-06 12:53:00
5:53 AM,30.0,28.0,92,30.22,6.0,Calm,Calm,-,N/A,,Overcast,0,2013-01-06 13:53:00
6:53 AM,25.0,24.1,96,30.22,7.0,SW,3.5,-,N/A,,Clear,220,2013-01-06 14:53:00
7:53 AM,27.0,26.1,96,30.24,2.5,Calm,Calm,-,N/A,,Overcast,0,2013-01-06 15:53:00
8:08 AM,26.6,26.6,100,30.22,3.0,Calm,Calm,-,N/A,,Overcast,0,2013-01-06 16:08:00
8:53 AM,28.0,26.1,92,30.25,6.0,West,3.5,-,N/A,,Mostly Cloudy,260,2013-01-06 16:53:00
10:53 AM,32.0,27.0,82,30.26,10.0,Calm,Calm,-,N/A,,Mostly Cloudy,0,2013-01-06 18:53:00
11:53 AM,34.0,27.0,75,30.24,10.0,Calm,Calm,-,N/A,,Clear,0,2013-01-06 19:53:00
12:53 PM,36.0,28.0,73,30.20,10.0,Calm,Calm,-,N/A,,Clear,0,2013-01-06 20:53:00
1:53 PM,37.0,27.0,67,30.18,10.0,WSW,3.5,-,N/A,,Clear,240,2013-01-06 21:53:00
2:53 PM,36.0,28.9,76,30.18,10.0,North,3.5,-,N/A,,Clear,350,2013-01-06 22:53:00
3:53 PM,34.0,28.0,79,30.19,10.0,Calm,Calm,-,N/A,,Clear,0,2013-01-06 23:53:00
4:53 PM,32.0,27.0,82,30.16,10.0,Calm,Calm,-,N/A,,Clear,0,2013-01-07 00:53:00
5:53 PM,30.0,26.1,85,30.17,10.0,Calm,Calm,-,N/A,,Clear,0,2013-01-07 01:53:00
6:53 PM,28.9,27.0,92,30.17,8.0,Calm,Calm,-,N/A,,Clear,0,2013-01-07 02:53:00
7:53 PM,28.9,26.1,89,30.15,10.0,Calm,Calm,-,N/A,,Clear,0,2013-01-07 03:53:00
8:53 PM,28.9,27.0,92,30.15,9.0,Calm,Calm,-,N/A,,Clear,0,2013-01-07 04:53:00
9:53 PM,30.0,26.1,85,30.15,10.0,Calm,Calm,-,N/A,,Scattered Clouds,0,2013-01-07 05:53:00
10:53 PM,28.9,26.1,89,30.12,8.0,SSE,4.6,-,N/A,,Scattered Clouds,160,2013-01-07 06:53:00
11:53 PM,28.0,26.1,92,30.10,8.0,South,3.5,-,N/A,,Mostly Cloudy,170,2013-01-07 07:53:00